Regional Weather Roundup
Issued by NWS

Home | Current Version | Previous Version | Graphics & Text | Print | Product List | Glossary On
Versions: 1 2 3 4 5 6 7 8 9 10 11 12 13 14 15 16 17 18 19 20 21 22 23 24 25 26 27 28 29 30 31 32 33 34 35 36 37 38 39 40 41 42 43 44 45 46 47 48 49 50
000
ASUS43 KOAX 282202
RWRNE

WEATHER ROUNDUP FOR NEBRASKA
NATIONAL WEATHER SERVICE OMAHA NE
500 PM CDT MON JUL 28 2014

NOTES: SATELLITE DATA IS BEING USED TO AUGMENT CLOUD COVER ABOVE
       12000 FEET.
       "FAIR" INDICATES FEW OR NO CLOUDS BELOW 12,000 FEET WITH NO
       SIGNIFICANT WEATHER AND/OR OBSTRUCTIONS TO VISIBILITY.

  * THESE STATIONS DO NOT REPORT WEATHER SUCH AS RAIN...SNOW OR FOG.

NEZ001>004-019>022-054>056-282300-
NEBRASKA PANHANDLE

CITY           SKY/WX    TMP DP  RH WIND       PRES   REMARKS
SCOTTSBLUFF    SUNNY     89  59  36 E13       30.23F
ALLIANCE       MOSUNNY   87  55  33 S9        30.24F
CHADRON        SUNNY     87  56  34 SE10G16   30.21F
KIMBALL        MOSUNNY   87  51  29 SE9       30.26F
SIDNEY         PTSUNNY   90  54  29 SE15      30.26F
$$

NEZ057>060-069>072-079>082-282300-
SOUTHWEST NEBRASKA

CITY           SKY/WX    TMP DP  RH WIND       PRES   REMARKS
NORTH PLATTE   SUNNY     83  58  42 E12       30.23F
IMPERIAL       PTSUNNY   85  58  39 E9        30.22F
LEXINGTON      SUNNY     82  58  44 SE6       30.25F
MCCOOK         SUNNY     89  55  31 SE5       30.21F
OGALLALA       SUNNY     84  58  40 E6        30.23F
$$

NEZ005>010-023>029-035>040-094-282300-
NORTH CENTRAL NEBRASKA

CITY           SKY/WX    TMP DP  RH WIND       PRES   REMARKS
VALENTINE      SUNNY     81  52  36 VRB3      30.26F
AINSWORTH      SUNNY     78  50  38 E6        30.28F
BROKEN BOW     CLOUDY    79  56  45 NE7       30.26F
O`NEILL        MOSUNNY   76  48  37 N6        30.26F
ORD            SUNNY     79  54  41 CALM      30.25F
THEDFORD       CLOUDY    79  56  45 E8        30.28S
$$

NEZ041-046>049-061>064-073>077-083>087-282300-
SOUTH CENTRAL NEBRASKA

CITY           SKY/WX    TMP DP  RH WIND       PRES   REMARKS
GRAND ISLAND   MOSUNNY   78  55  44 VRB3      30.26F
AURORA         SUNNY     77  57  49 N8        30.26F
HASTINGS       MOSUNNY   78  55  44 N7        30.26F
HEBRON         SUNNY     78  54  43 N7        30.24F
HOLDREGE       SUNNY     79  56  44 E6        30.25F
KEARNEY *      SUNNY     81  55  41 CALM      30.26F
YORK           MOSUNNY   75  57  53 N5G16     30.26F
$$

NEZ011>018-030>034-042>045-282300-
NORTHEAST NEBRASKA

CITY           SKY/WX    TMP DP  RH WIND       PRES   REMARKS
NORFOLK        MOSUNNY   76  51  41 NW10      30.25F
ALBION         MOSUNNY   75  54  49 N8        30.27F
BLAIR          SUNNY     75  54  48 NW5       30.21F
COLUMBUS *     MOSUNNY   75  54  46 N9        30.25F
FREMONT        MOSUNNY   79  53  39 NW12      30.22F
TEKAMAH        PTSUNNY   80  55  42 N12       30.21F
WAYNE          MOSUNNY   76  56  48 NW6       30.24F
$$

NEZ050>053-065>068-078-088>093-282300-
SOUTHEAST NEBRASKA

CITY           SKY/WX    TMP DP  RH WIND       PRES   REMARKS
LINCOLN        MOSUNNY   79  53  40 N12       30.23F
OMAHA EPPLEY   MOSUNNY   79  55  43 NW9       30.20F
BEATRICE       MOSUNNY   78  57  48 N10       30.22F
FALLS CITY     MOSUNNY   79  56  45 N10       30.19F
NEBRASKA CITY  MOSUNNY   76  51  41 N9        30.21F
PLATTSMOUTH    MOSUNNY   78  51  38 NW9       30.21F
$$

NEZ044-045-051>053-067-282300-
OMAHA AREA

CITY           SKY/WX    TMP DP  RH WIND       PRES   REMARKS
OMAHA EPPLEY   MOSUNNY   79  55  43 NW9       30.20F
BLAIR          SUNNY     75  54  48 NW5       30.21F
FREMONT        MOSUNNY   79  53  39 NW12      30.22F
MILLARD        PTSUNNY   77  56  49 NW9       30.21F
OFFUTT AFB     MOSUNNY   79  57  46 NW3       30.20F
PLATTSMOUTH    MOSUNNY   78  51  38 NW9       30.21F
WAHOO          FAIR      78  54  43 N9        30.22F
$$


USA.gov is the U.S. government's official web portal to all federal, state and local government web resources and services.